| time (UTC) | temp F | wind direction | speed knots | gust knots | rain 1hr in | rain 24hr in | rain mn in | humidity % | barometer mb |
| 20260507190639 | 71 | 10 | 2.6 | 2.6 | 0.00 | 0.00 | 0.00 | 31 | 1015.3 |
| 20260507190138 | 71 | 99 | 0.9 | 0.9 | 0.00 | 0.00 | 0.00 | 33 | 1015.1 |
| 20260507185636 | 70 | 38 | 1.7 | 1.7 | 0.00 | 0.00 | 0.00 | 33 | 1015.2 |
| 20260507185132 | 68 | 63 | 0.9 | 0.9 | 0.00 | 0.00 | 0.00 | 35 | 1015.3 |
| 20260507184630 | 68 | 351 | 4.3 | 5.2 | 0.00 | 0.00 | 0.00 | 34 | 1015.1 |
| 20260507184128 | 68 | 359 | 2.6 | 3.5 | 0.00 | 0.00 | 0.00 | 37 | 1015.2 |
| 20260507183624 | 69 | 355 | 3.5 | 3.5 | 0.00 | 0.00 | 0.00 | 35 | 1015.4 |
| 20260507183121 | 68 | 22 | 1.7 | 1.7 | 0.00 | 0.00 | 0.00 | 34 | 1015.5 |
| 20260507182617 | 67 | 346 | 2.6 | 2.6 | 0.00 | 0.00 | 0.00 | 37 | 1015.3 |
| 20260507182113 | 69 | 313 | 1.7 | 1.7 | 0.00 | 0.00 | 0.00 | 33 | 1015.5 |
| 20260507181610 | 68 | 27 | 0.9 | 0.9 | 0.00 | 0.00 | 0.00 | 36 | 1015.4 |
| 20260507181107 | 68 | 333 | 3.5 | 3.5 | 0.00 | 0.00 | 0.00 | 34 | 1015.4 |
| 20260507180603 | 67 | 45 | 0.9 | 1.7 | 0.00 | 0.00 | 0.00 | 35 | 1015.6 |
| 20260507180100 | 67 | 1 | 3.5 | 3.5 | 0.00 | 0.00 | 0.00 | 36 | 1015.5 |
| 20260507175556 | 67 | 16 | 1.7 | 2.6 | 0.00 | 0.00 | 0.00 | 37 | 1015.3 |
| 20260507175053 | 67 | 351 | 0.9 | 0.9 | 0.00 | 0.00 | 0.00 | 35 | 1015.4 |
| 20260507174550 | 66 | 53 | 2.6 | 3.5 | 0.00 | 0.00 | 0.00 | 36 | 1015.5 |
| 20260507174049 | 66 | 314 | 5.2 | 7.0 | 0.00 | 0.00 | 0.00 | 37 | 1015.6 |
| 20260507173545 | 65 | 351 | 2.6 | 2.6 | 0.00 | 0.00 | 0.00 | 38 | 1015.6 |
| 20260507173042 | 65 | 339 | 3.5 | 3.5 | 0.00 | 0.00 | 0.00 | 37 | 1015.4 |
| 20260507172538 | 65 | 346 | 4.3 | 5.2 | 0.00 | 0.00 | 0.00 | 38 | 1015.6 |
| 20260507172036 | 65 | 301 | 7.0 | 8.7 | 0.00 | 0.00 | 0.00 | 37 | 1015.6 |
| 20260507171531 | 65 | 347 | 2.6 | 2.6 | 0.00 | 0.00 | 0.00 | 38 | 1015.4 |
| 20260507171028 | 65 | 317 | 0.0 | 0.0 | 0.00 | 0.00 | 0.00 | 37 | 1015.0 |
| 20260507170524 | 64 | 348 | 1.7 | 1.7 | 0.00 | 0.00 | 0.00 | 39 | 1015.2 |
| 20260507170022 | 64 | 330 | 2.6 | 2.6 | 0.00 | 0.00 | 0.00 | 39 | 1015.3 |
| 20260507165517 | 63 | 352 | 3.5 | 5.2 | 0.00 | 0.00 | 0.00 | 38 | 1015.4 |
| 20260507165014 | 63 | 319 | 4.3 | 5.2 | 0.00 | 0.00 | 0.00 | 39 | 1015.4 |
| 20260507164510 | 64 | 341 | 4.3 | 6.1 | 0.00 | 0.00 | 0.00 | 38 | 1015.6 |
| 20260507164008 | 64 | 335 | 1.7 | 2.6 | 0.00 | 0.00 | 0.00 | 37 | 1015.4 |
| 20260507163504 | 64 | 326 | 5.2 | 6.1 | 0.00 | 0.00 | 0.00 | 39 | 1015.6 |
| 20260507163002 | 63 | 329 | 1.7 | 1.7 | 0.00 | 0.00 | 0.00 | 40 | 1015.6 |
| 20260507162457 | 63 | 333 | 1.7 | 2.6 | 0.00 | 0.00 | 0.00 | 39 | 1015.4 |
| 20260507161954 | 62 | 342 | 3.5 | 3.5 | 0.00 | 0.00 | 0.00 | 40 | 1015.4 |
| 20260507161450 | 62 | 0 | 0.9 | 1.7 | 0.00 | 0.00 | 0.00 | 42 | 1015.3 |
| 20260507160948 | 62 | 352 | 5.2 | 6.1 | 0.00 | 0.00 | 0.00 | 39 | 1015.6 |
| 20260507160443 | 63 | 345 | 2.6 | 2.6 | 0.00 | 0.00 | 0.00 | 40 | 1015.7 |
| 20260507155939 | 62 | 356 | 0.9 | 0.9 | 0.00 | 0.00 | 0.00 | 41 | 1015.6 |
| 20260507155436 | 62 | 359 | 0.9 | 0.9 | 0.00 | 0.00 | 0.00 | 41 | 1015.6 |
| 20260507154933 | 61 | 56 | 0.0 | 0.0 | 0.00 | 0.00 | 0.00 | 45 | 1016.0 |
| 20260507154429 | 60 | 304 | 0.9 | 0.9 | 0.00 | 0.00 | 0.00 | 44 | 1015.5 |
| 20260507153927 | 59 | 328 | 0.9 | 0.9 | 0.00 | 0.00 | 0.00 | 46 | 1015.8 |
| 20260507153423 | 59 | 312 | 1.7 | 2.6 | 0.00 | 0.00 | 0.00 | 45 | 1015.7 |
| 20260507152919 | 58 | 349 | 0.9 | 1.7 | 0.00 | 0.00 | 0.00 | 47 | 1015.8 |
| 20260507152415 | 58 | 352 | 1.7 | 1.7 | 0.00 | 0.00 | 0.00 | 46 | 1016.1 |
| 20260507151912 | 59 | 339 | 0.9 | 1.7 | 0.00 | 0.00 | 0.00 | 46 | 1015.8 |
| 20260507151408 | 58 | 351 | 0.9 | 0.9 | 0.00 | 0.00 | 0.00 | 46 | 1015.8 |
| 20260507150905 | 57 | 340 | 1.7 | 1.7 | 0.00 | 0.00 | 0.00 | 46 | 1015.7 |
| 20260507150402 | 58 | 317 | 2.6 | 2.6 | 0.00 | 0.00 | 0.00 | 47 | 1016.0 |
| 20260507145858 | 58 | 308 | 0.9 | 0.9 | 0.00 | 0.00 | 0.00 | 46 | 1015.7 |
| 20260507145354 | 57 | 352 | 2.6 | 3.5 | 0.00 | 0.00 | 0.00 | 47 | 1016.0 |
| 20260507144851 | 57 | 341 | 0.9 | 0.9 | 0.00 | 0.00 | 0.00 | 48 | 1015.7 |
| 20260507144349 | 57 | 90 | 1.7 | 1.7 | 0.00 | 0.00 | 0.00 | 49 | 1016.0 |
| 20260507143845 | 55 | 136 | 0.0 | 0.9 | 0.00 | 0.00 | 0.00 | 50 | 1016.0 |
| 20260507143343 | 55 | 127 | 0.0 | 0.9 | 0.00 | 0.00 | 0.00 | 52 | 1015.6 |
| 20260507142839 | 54 | 124 | 0.9 | 0.9 | 0.00 | 0.00 | 0.00 | 52 | 1015.7 |
| 20260507142335 | 54 | 124 | 1.7 | 1.7 | 0.00 | 0.00 | 0.00 | 52 | 1015.8 |
| 20260507141832 | 53 | 123 | 0.0 | 0.0 | 0.00 | 0.00 | 0.00 | 53 | 1015.7 |
| 20260507141329 | 53 | 124 | 0.9 | 0.9 | 0.00 | 0.00 | 0.00 | 54 | 1015.5 |
| 20260507140825 | 53 | 119 | 1.7 | 1.7 | 0.00 | 0.00 | 0.00 | 55 | 1015.4 |
| 20260507140322 | 53 | 87 | 0.9 | 1.7 | 0.00 | 0.00 | 0.00 | 54 | 1015.3 |
| 20260507135820 | 53 | 76 | 0.9 | 0.9 | 0.00 | 0.00 | 0.00 | 54 | 1015.6 |
| 20260507135317 | 52 | 72 | 0.9 | 0.9 | 0.00 | 0.00 | 0.00 | 55 | 1015.5 |
| 20260507134814 | 52 | 70 | 0.9 | 0.9 | 0.00 | 0.00 | 0.00 | 56 | 1015.6 |
| 20260507134310 | 51 | 64 | 0.0 | 0.0 | 0.00 | 0.00 | 0.00 | 55 | 1015.5 |
| 20260507133805 | 51 | 64 | 0.0 | 0.0 | 0.00 | 0.00 | 0.00 | 57 | 1015.5 |
| 20260507133302 | 51 | 64 | 0.0 | 0.0 | 0.00 | 0.00 | 0.00 | 57 | 1015.3 |
| 20260507132800 | 50 | 64 | 0.0 | 0.0 | 0.00 | 0.00 | 0.00 | 58 | 1015.4 |
| 20260507132256 | 50 | 64 | 0.0 | 0.0 | 0.00 | 0.00 | 0.00 | 57 | 1015.3 |
| 20260507131753 | 51 | 64 | 0.0 | 0.0 | 0.00 | 0.00 | 0.00 | 57 | 1015.3 |
| 20260507131250 | 51 | 64 | 0.0 | 0.0 | 0.00 | 0.00 | 0.00 | 55 | 1015.3 |
| 20260507130747 | 51 | 64 | 0.0 | 0.0 | 0.00 | 0.00 | 0.00 | 55 | 1015.3 |
| 20260507130245 | 51 | 58 | 0.0 | 0.0 | 0.00 | 0.00 | 0.00 | 55 | 1015.1 |
| 20260507125743 | 51 | 58 | 0.0 | 0.0 | 0.00 | 0.00 | 0.00 | 54 | 1014.9 |
| 20260507125241 | 51 | 30 | 0.0 | 0.0 | 0.00 | 0.00 | 0.00 | 54 | 1015.1 |
| 20260507124737 | 51 | 112 | 0.0 | 0.0 | 0.00 | 0.00 | 0.00 | 54 | 1015.1 |
| 20260507124234 | 51 | 325 | 0.0 | 0.0 | 0.00 | 0.00 | 0.00 | 54 | 1015.0 |
| 20260507123732 | 51 | 324 | 0.0 | 0.0 | 0.00 | 0.00 | 0.00 | 54 | 1015.1 |
| 20260507123230 | 51 | 325 | 0.0 | 0.0 | 0.00 | 0.00 | 0.00 | 53 | 1014.9 |
| 20260507122724 | 51 | 324 | 0.0 | 0.0 | 0.00 | 0.00 | 0.00 | 53 | 1015.0 |
| 20260507122221 | 51 | 324 | 0.0 | 0.0 | 0.00 | 0.00 | 0.00 | 54 | 1015.0 |
| 20260507121716 | 51 | 324 | 0.0 | 0.0 | 0.00 | 0.00 | 0.00 | 54 | 1015.0 |
| 20260507121213 | 51 | 324 | 0.0 | 0.0 | 0.00 | 0.00 | 0.00 | 54 | 1015.2 |
| 20260507120709 | 52 | 324 | 0.0 | 0.0 | 0.00 | 0.00 | 0.00 | 52 | 1015.1 |
| 20260507120206 | 52 | 324 | 0.0 | 0.0 | 0.00 | 0.00 | 0.00 | 52 | 1015.2 |
| 20260507115702 | 52 | 324 | 0.9 | 0.9 | 0.00 | 0.00 | 0.00 | 51 | 1015.0 |
| 20260507115158 | 52 | 324 | 0.0 | 0.0 | 0.00 | 0.00 | 0.00 | 51 | 1014.9 |
| 20260507114654 | 51 | 323 | 0.0 | 0.0 | 0.00 | 0.00 | 0.00 | 52 | 1015.0 |
| 20260507114151 | 51 | 320 | 0.0 | 0.0 | 0.00 | 0.00 | 0.00 | 53 | 1014.9 |
| 20260507113649 | 51 | 320 | 0.0 | 0.0 | 0.00 | 0.00 | 0.00 | 53 | 1015.2 |
| 20260507113145 | 51 | 320 | 0.0 | 0.0 | 0.00 | 0.00 | 0.00 | 52 | 1015.2 |
| 20260507112643 | 51 | 320 | 0.0 | 0.0 | 0.00 | 0.00 | 0.00 | 52 | 1015.1 |
| 20260507112139 | 51 | 320 | 0.0 | 0.0 | 0.00 | 0.00 | 0.00 | 53 | 1015.2 |
| 20260507111637 | 51 | 320 | 0.0 | 0.0 | 0.00 | 0.00 | 0.00 | 52 | 1015.1 |
| 20260507111133 | 52 | 320 | 0.0 | 0.0 | 0.00 | 0.00 | 0.00 | 52 | 1015.4 |
| 20260507110630 | 52 | 320 | 0.9 | 0.9 | 0.00 | 0.00 | 0.00 | 50 | 1015.2 |
| 20260507110126 | 53 | 320 | 0.0 | 0.0 | 0.00 | 0.00 | 0.00 | 50 | 1015.1 |
| 20260507105623 | 53 | 320 | 0.0 | 0.0 | 0.00 | 0.00 | 0.00 | 49 | 1015.1 |
| 20260507105119 | 53 | 320 | 0.0 | 0.0 | 0.00 | 0.00 | 0.00 | 48 | 1015.0 |
| 20260507104617 | 53 | 320 | 0.0 | 0.0 | 0.00 | 0.00 | 0.00 | 47 | 1015.0 |
| 20260507104113 | 54 | 318 | 1.7 | 1.7 | 0.00 | 0.00 | 0.00 | 47 | 1015.0 |
| 20260507103609 | 54 | 323 | 0.9 | 0.9 | 0.00 | 0.00 | 0.00 | 46 | 1015.3 |
| 20260507103106 | 55 | 324 | 0.0 | 0.0 | 0.00 | 0.00 | 0.00 | 45 | 1015.1 |
| 20260507102602 | 54 | 325 | 1.7 | 1.7 | 0.00 | 0.00 | 0.00 | 45 | 1015.1 |
| 20260507102059 | 54 | 326 | 1.7 | 0.9 | 0.00 | 0.00 | 0.00 | 45 | 1015.2 |
| 20260507101554 | 55 | 321 | 0.0 | 0.0 | 0.00 | 0.00 | 0.00 | 46 | 1015.3 |
| 20260507101051 | 54 | 319 | 2.6 | 2.6 | 0.00 | 0.00 | 0.00 | 45 | 1015.0 |
| 20260507100548 | 53 | 334 | 1.7 | 2.6 | 0.00 | 0.00 | 0.00 | 47 | 1015.4 |
| 20260507100046 | 54 | 344 | 0.0 | 0.0 | 0.00 | 0.00 | 0.00 | 48 | 1015.2 |
| 20260507095544 | 54 | 343 | 0.0 | 0.0 | 0.00 | 0.00 | 0.00 | 46 | 1015.1 |
| 20260507095040 | 54 | 343 | 0.0 | 0.0 | 0.00 | 0.00 | 0.00 | 46 | 1015.3 |
| 20260507094536 | 54 | 343 | 0.9 | 0.0 | 0.00 | 0.00 | 0.00 | 46 | 1015.3 |
| 20260507094034 | 55 | 343 | 0.9 | 0.9 | 0.00 | 0.00 | 0.00 | 46 | 1015.1 |
| 20260507093531 | 55 | 343 | 0.0 | 0.0 | 0.00 | 0.00 | 0.00 | 45 | 1015.1 |
| 20260507093030 | 55 | 343 | 0.9 | 0.9 | 0.00 | 0.00 | 0.00 | 44 | 1014.9 |
| 20260507092526 | 55 | 343 | 0.0 | 0.9 | 0.00 | 0.00 | 0.00 | 44 | 1015.1 |
| 20260507092022 | 55 | 343 | 0.9 | 0.9 | 0.00 | 0.00 | 0.00 | 44 | 1015.3 |
| 20260507091519 | 55 | 343 | 0.0 | 0.0 | 0.00 | 0.00 | 0.00 | 45 | 1015.2 |
| 20260507091015 | 55 | 343 | 0.0 | 0.0 | 0.00 | 0.00 | 0.00 | 46 | 1015.1 |
| 20260507090511 | 55 | 343 | 0.0 | 0.0 | 0.00 | 0.00 | 0.00 | 45 | 1015.0 |
| 20260507090008 | 56 | 343 | 0.0 | 0.0 | 0.00 | 0.00 | 0.00 | 44 | 1015.0 |
| 20260507085505 | 57 | 343 | 0.9 | 0.9 | 0.00 | 0.00 | 0.00 | 42 | 1015.2 |
| 20260507085002 | 57 | 345 | 0.0 | 0.0 | 0.00 | 0.00 | 0.00 | 40 | 1015.3 |
| 20260507084459 | 57 | 342 | 1.7 | 1.7 | 0.00 | 0.00 | 0.00 | 40 | 1015.2 |
| 20260507083956 | 58 | 355 | 1.7 | 2.6 | 0.00 | 0.00 | 0.00 | 40 | 1015.3 |
| 20260507083452 | 58 | 4 | 3.5 | 3.5 | 0.00 | 0.00 | 0.00 | 40 | 1015.2 |
| 20260507082948 | 59 | 354 | 1.7 | 1.7 | 0.00 | 0.00 | 0.00 | 39 | 1015.3 |
| 20260507082444 | 59 | 348 | 3.5 | 5.2 | 0.00 | 0.00 | 0.00 | 37 | 1015.4 |
| 20260507081941 | 58 | 329 | 3.5 | 6.1 | 0.00 | 0.00 | 0.00 | 38 | 1015.1 |
| 20260507081437 | 57 | 347 | 2.6 | 3.5 | 0.00 | 0.00 | 0.00 | 39 | 1015.1 |
| 20260507080935 | 57 | 11 | 2.6 | 3.5 | 0.00 | 0.00 | 0.00 | 40 | 1015.2 |
| 20260507080430 | 57 | 353 | 1.7 | 2.6 | 0.00 | 0.00 | 0.00 | 41 | 1015.2 |
| 20260507075926 | 57 | 348 | 0.9 | 0.9 | 0.00 | 0.00 | 0.00 | 41 | 1015.2 |
| 20260507075423 | 57 | 347 | 1.7 | 1.7 | 0.00 | 0.00 | 0.00 | 40 | 1015.2 |
| 20260507074919 | 59 | 346 | 0.0 | 0.0 | 0.00 | 0.00 | 0.00 | 39 | 1015.0 |
| 20260507074416 | 59 | 340 | 0.9 | 0.9 | 0.00 | 0.00 | 0.00 | 37 | 1015.1 |
| 20260507073914 | 59 | 340 | 0.9 | 1.7 | 0.00 | 0.00 | 0.00 | 37 | 1015.3 |
| 20260507073410 | 59 | 341 | 1.7 | 1.7 | 0.00 | 0.00 | 0.00 | 37 | 1015.4 |
| 20260507072907 | 59 | 339 | 1.7 | 1.7 | 0.00 | 0.00 | 0.00 | 36 | 1015.1 |
| 20260507072404 | 59 | 329 | 1.7 | 1.7 | 0.00 | 0.00 | 0.00 | 36 | 1015.1 |
| 20260507071902 | 60 | 329 | 0.9 | 0.9 | 0.00 | 0.00 | 0.00 | 35 | 1015.0 |
| 20260507071359 | 60 | 333 | 1.7 | 1.7 | 0.00 | 0.00 | 0.00 | 35 | 1015.1 |
| 20260507070855 | 60 | 345 | 1.7 | 1.7 | 0.00 | 0.00 | 0.00 | 35 | 1015.3 |
| 20260507070353 | 60 | 340 | 3.5 | 3.5 | 0.00 | 0.00 | 0.00 | 34 | 1015.1 |
| 20260507065849 | 60 | 339 | 0.9 | 1.7 | 0.00 | 0.00 | 0.00 | 35 | 1015.3 |
| 20260507065346 | 60 | 333 | 3.5 | 3.5 | 0.00 | 0.00 | 0.00 | 36 | 1015.2 |
| 20260507064843 | 60 | 352 | 0.9 | 0.9 | 0.00 | 0.00 | 0.00 | 36 | 1015.4 |
| 20260507064341 | 60 | 339 | 0.9 | 0.9 | 0.00 | 0.00 | 0.00 | 36 | 1015.3 |
| 20260507063839 | 61 | 355 | 0.9 | 1.7 | 0.00 | 0.00 | 0.00 | 35 | 1015.4 |
| 20260507063336 | 61 | 355 | 0.9 | 1.7 | 0.00 | 0.00 | 0.00 | 34 | 1015.1 |
| 20260507062832 | 61 | 355 | 0.9 | 1.7 | 0.00 | 0.00 | 0.00 | 34 | 1015.3 |
| 20260507062329 | 62 | 353 | 1.7 | 1.7 | 0.00 | 0.00 | 0.00 | 33 | 1015.2 |
| 20260507061828 | 62 | 9 | 3.5 | 3.5 | 0.00 | 0.00 | 0.00 | 33 | 1015.4 |
| 20260507061325 | 62 | 29 | 1.7 | 1.7 | 0.00 | 0.00 | 0.00 | 33 | 1015.1 |
| 20260507060824 | 62 | 355 | 2.6 | 2.6 | 0.00 | 0.00 | 0.00 | 33 | 1015.4 |
| 20260507060320 | 62 | 353 | 1.7 | 2.6 | 0.00 | 0.00 | 0.00 | 34 | 1015.3 |
| 20260507055817 | 62 | 6 | 1.7 | 1.7 | 0.00 | 0.00 | 0.00 | 34 | 1015.3 |
| 20260507055312 | 62 | 15 | 1.7 | 1.7 | 0.00 | 0.00 | 0.00 | 34 | 1015.3 |
| 20260507054808 | 62 | 359 | 1.7 | 1.7 | 0.00 | 0.00 | 0.00 | 34 | 1015.5 |
| 20260507054305 | 62 | 4 | 0.9 | 0.9 | 0.00 | 0.00 | 0.00 | 35 | 1015.2 |
| 20260507053802 | 62 | 41 | 0.9 | 0.9 | 0.00 | 0.00 | 0.00 | 34 | 1015.3 |
| 20260507053300 | 62 | 21 | 0.9 | 0.9 | 0.00 | 0.00 | 0.00 | 34 | 1015.3 |
| 20260507052759 | 62 | 20 | 0.9 | 0.9 | 0.00 | 0.00 | 0.00 | 34 | 1015.2 |
| 20260507052254 | 62 | 22 | 0.9 | 0.9 | 0.00 | 0.00 | 0.00 | 34 | 1015.2 |
| 20260507051753 | 62 | 22 | 1.7 | 0.9 | 0.00 | 0.00 | 0.00 | 34 | 1015.4 |
| 20260507051249 | 63 | 24 | 0.0 | 0.9 | 0.00 | 0.00 | 0.00 | 34 | 1015.2 |
| 20260507050746 | 63 | 21 | 0.9 | 0.9 | 0.00 | 0.00 | 0.00 | 33 | 1015.2 |
| 20260507050243 | 64 | 355 | 0.0 | 0.9 | 0.00 | 0.00 | 0.00 | 32 | 1015.2 |
| 20260507045740 | 63 | 11 | 2.6 | 2.6 | 0.00 | 0.00 | 0.00 | 32 | 1015.0 |
| 20260507045236 | 64 | 3 | 0.0 | 0.0 | 0.00 | 0.00 | 0.00 | 33 | 1015.3 |
| 20260507044733 | 64 | 2 | 0.0 | 0.0 | 0.00 | 0.00 | 0.00 | 32 | 1015.4 |
| 20260507044229 | 64 | 0 | 1.7 | 1.7 | 0.00 | 0.00 | 0.00 | 32 | 1015.4 |
| 20260507043726 | 65 | 353 | 0.9 | 0.9 | 0.00 | 0.00 | 0.00 | 31 | 1015.2 |
| 20260507043223 | 65 | 356 | 1.7 | 2.6 | 0.00 | 0.00 | 0.00 | 31 | 1015.2 |
| 20260507042719 | 65 | 341 | 0.9 | 1.7 | 0.00 | 0.00 | 0.00 | 31 | 1015.3 |
| 20260507042214 | 65 | 12 | 0.9 | 0.9 | 0.00 | 0.00 | 0.00 | 31 | 1015.2 |
| 20260507041712 | 65 | 8 | 0.0 | 0.0 | 0.00 | 0.00 | 0.00 | 31 | 1015.0 |
| 20260507041208 | 66 | 339 | 0.9 | 0.9 | 0.00 | 0.00 | 0.00 | 31 | 1015.1 |
| 20260507040705 | 66 | 335 | 4.3 | 3.5 | 0.00 | 0.00 | 0.00 | 31 | 1015.0 |
| 20260507040201 | 66 | 351 | 1.7 | 1.7 | 0.00 | 0.00 | 0.00 | 31 | 1015.1 |
| 20260507035657 | 66 | 284 | 0.9 | 0.9 | 0.00 | 0.00 | 0.00 | 31 | 1014.9 |
| 20260507035153 | 67 | 332 | 0.9 | 1.7 | 0.00 | 0.00 | 0.00 | 30 | 1014.9 |
| 20260507034650 | 67 | 327 | 3.5 | 3.5 | 0.00 | 0.00 | 0.00 | 30 | 1014.6 |
| 20260507034148 | 67 | 340 | 6.1 | 7.8 | 0.00 | 0.00 | 0.00 | 30 | 1014.5 |
| 20260507033646 | 67 | 341 | 3.5 | 3.5 | 0.00 | 0.00 | 0.00 | 30 | 1014.3 |
| 20260507033143 | 68 | 341 | 1.7 | 1.7 | 0.00 | 0.00 | 0.00 | 31 | 1014.4 |
| 20260507032640 | 68 | 336 | 5.2 | 6.1 | 0.00 | 0.00 | 0.00 | 31 | 1014.3 |
| 20260507032136 | 68 | 289 | 1.7 | 1.7 | 0.00 | 0.00 | 0.00 | 31 | 1014.5 |
| 20260507031633 | 68 | 347 | 2.6 | 5.2 | 0.00 | 0.00 | 0.00 | 31 | 1014.3 |
| 20260507031130 | 69 | 326 | 3.5 | 3.5 | 0.00 | 0.00 | 0.00 | 30 | 1014.2 |
| 20260507030627 | 69 | 332 | 3.5 | 6.1 | 0.00 | 0.00 | 0.00 | 30 | 1014.5 |
| 20260507030125 | 69 | 318 | 3.5 | 3.5 | 0.00 | 0.00 | 0.00 | 30 | 1014.1 |
| 20260507025621 | 69 | 340 | 2.6 | 3.5 | 0.00 | 0.00 | 0.00 | 30 | 1014.1 |
| 20260507025118 | 70 | 244 | 3.5 | 6.1 | 0.00 | 0.00 | 0.00 | 30 | 1014.1 |
| 20260507024616 | 70 | 310 | 3.5 | 3.5 | 0.00 | 0.00 | 0.00 | 29 | 1014.0 |
| 20260507024113 | 70 | 336 | 2.6 | 3.5 | 0.00 | 0.00 | 0.00 | 29 | 1014.1 |
| 20260507023608 | 71 | 336 | 2.6 | 2.6 | 0.00 | 0.00 | 0.00 | 28 | 1014.1 |
| 20260507023106 | 71 | 324 | 1.7 | 2.6 | 0.00 | 0.00 | 0.00 | 28 | 1013.9 |
| 20260507022603 | 71 | 301 | 3.5 | 5.2 | 0.00 | 0.00 | 0.00 | 27 | 1013.9 |
| 20260507022058 | 71 | 317 | 6.1 | 7.8 | 0.00 | 0.00 | 0.00 | 27 | 1013.8 |
| 20260507021555 | 72 | 291 | 3.5 | 3.5 | 0.00 | 0.00 | 0.00 | 27 | 1013.7 |
| 20260507021051 | 72 | 303 | 4.3 | 5.2 | 0.00 | 0.00 | 0.00 | 27 | 1013.9 |
| 20260507020549 | 72 | 317 | 2.6 | 3.5 | 0.00 | 0.00 | 0.00 | 27 | 1013.7 |
| 20260507020045 | 72 | 324 | 2.6 | 5.2 | 0.00 | 0.00 | 0.00 | 27 | 1013.8 |
| 20260507015544 | 72 | 333 | 2.6 | 3.5 | 0.00 | 0.00 | 0.00 | 27 | 1013.7 |
| 20260507015041 | 73 | 351 | 5.2 | 7.0 | 0.00 | 0.00 | 0.00 | 27 | 1013.7 |
| 20260507014537 | 73 | 314 | 5.2 | 6.1 | 0.00 | 0.00 | 0.00 | 27 | 1013.6 |
| 20260507014033 | 73 | 319 | 4.3 | 7.8 | 0.00 | 0.00 | 0.00 | 27 | 1013.6 |
| 20260507013530 | 73 | 278 | 4.3 | 6.1 | 0.00 | 0.00 | 0.00 | 27 | 1013.8 |
| 20260507013027 | 73 | 313 | 5.2 | 6.1 | 0.00 | 0.00 | 0.00 | 27 | 1013.7 |
| 20260507012524 | 74 | 330 | 3.5 | 3.5 | 0.00 | 0.00 | 0.00 | 26 | 1013.7 |
| 20260507012020 | 74 | 332 | 5.2 | 6.1 | 0.00 | 0.00 | 0.00 | 25 | 1013.6 |
| 20260507011518 | 74 | 345 | 4.3 | 5.2 | 0.00 | 0.00 | 0.00 | 26 | 1013.7 |
| 20260507011014 | 75 | 338 | 3.5 | 5.2 | 0.00 | 0.00 | 0.00 | 26 | 1013.2 |
| 20260507010508 | 75 | 263 | 3.5 | 3.5 | 0.00 | 0.00 | 0.00 | 28 | 1013.7 |
| 20260507010005 | 75 | 332 | 5.2 | 6.1 | 0.00 | 0.00 | 0.00 | 28 | 1013.7 |
| 20260507005503 | 75 | 345 | 1.7 | 1.7 | 0.00 | 0.00 | 0.00 | 28 | 1013.3 |
| 20260507004959 | 76 | 349 | 7.0 | 8.7 | 0.00 | 0.00 | 0.00 | 27 | 1013.6 |
| 20260507004456 | 76 | 2 | 4.3 | 5.2 | 0.00 | 0.00 | 0.00 | 26 | 1013.7 |
| 20260507003954 | 76 | 316 | 4.3 | 5.2 | 0.00 | 0.00 | 0.00 | 26 | 1013.3 |
| 20260507003448 | 76 | 7 | 6.1 | 7.0 | 0.00 | 0.00 | 0.00 | 25 | 1013.6 |
| 20260507002943 | 76 | 314 | 4.3 | 7.0 | 0.00 | 0.00 | 0.00 | 25 | 1013.5 |
| 20260507002440 | 75 | 331 | 3.5 | 3.5 | 0.00 | 0.00 | 0.00 | 26 | 1013.6 |
| 20260507001937 | 75 | 344 | 7.0 | 8.7 | 0.00 | 0.00 | 0.00 | 27 | 1013.3 |
| 20260507001434 | 75 | 297 | 7.8 | 8.7 | 0.00 | 0.00 | 0.00 | 28 | 1013.3 |
| 20260507000932 | 75 | 248 | 7.0 | 9.6 | 0.00 | 0.00 | 0.00 | 31 | 1012.9 |
| 20260507000427 | 75 | 306 | 7.0 | 8.7 | 0.00 | 0.00 | 0.00 | 32 | 1013.1 |
| 20260506235923 | 76 | 314 | 8.7 | 11.3 | 0.00 | 0.00 | 0.00 | 32 | 1013.1 |
| 20260506235420 | 76 | 359 | 4.3 | 6.1 | 0.00 | 0.00 | 0.00 | 33 | 1013.2 |